WetterOnline ( https://www.wetteronline.de )

Wetter aktuell Töging

Aktuelles Wetter: Mühldorf am Inn (410m)

6-stündlich | Neueste Meldungen
Ortszeit Temperatur Wetter
Sa, 11.07. 20:00 14.1° C leichter Regen
Sa, 11.07. 14:00 15.6° C Sprühregen
Sa, 11.07. 8:00 15.4° C Regen
Sa, 11.07. 2:00 16.5° C leichter Regen
Fr, 10.07. 20:00 18.8° C leichter Regen
Fr, 10.07. 14:00 30.7° C wolkenlos
Fr, 10.07. 8:00 19.7° C wolkenlos
Fr, 10.07. 2:00 15.6° C wolkenlos
Ortszeit Temperatur Wetter
So, 12.07. 1:30 11.9° C bewölkt
So, 12.07. 1:20 11.9° C bewölkt
So, 12.07. 1:10 11.4° C bewölkt
So, 12.07. 1:00 11.7° C bewölkt
So, 12.07. 0:50 11.7° C bewölkt
So, 12.07. 0:40 11.7° C bewölkt
So, 12.07. 0:30 11.8° C wolkig
So, 12.07. 0:00 12.0° C leicht bewölkt
Sa, 11.07. 23:30 11.9° C fast wolkenlos
Sa, 11.07. 23:00 12.0° C wolkenlos
Sa, 11.07. 22:30 12.0° C Nebel
Ortszeit Relative Feuchte Sichtweite
Sa, 11.07. 20:00 82% 12 km
Sa, 11.07. 14:00 88% 25 km
Sa, 11.07. 8:00 96% 10 km
Sa, 11.07. 2:00 91% 26 km
Fr, 10.07. 20:00 90% 15 km
Fr, 10.07. 14:00 36% >70 km
Fr, 10.07. 8:00 72% 50 km
Fr, 10.07. 2:00 93% 40 km
Ortszeit Relative Feuchte Sichtweite
So, 12.07. 1:30 98% 8 km
So, 12.07. 1:20 98% -
So, 12.07. 1:10 97% -
So, 12.07. 1:00 97% 8 km
So, 12.07. 0:50 97% -
So, 12.07. 0:40 97% -
So, 12.07. 0:30 97% 12 km
So, 12.07. 0:00 97% 13 km
Sa, 11.07. 23:30 98% 4.9 km
Sa, 11.07. 23:00 98% 1.9 km
Sa, 11.07. 22:30 96% 0.2 km
Ortszeit Niederschlagsmenge Niederschlagsart
Sa, 11.07. 20:00 12 l/m2 in 12 Std. Regen
Sa, 11.07. 14:00 10 l/m2 in 6 Std. Regen
Sa, 11.07. 8:00 19 l/m2 in 12 Std. Regen
Sa, 11.07. 2:00 10 l/m2 in 6 Std. Regen
Fr, 10.07. 20:00 5 l/m2 in 12 Std. Regen
Fr, 10.07. 14:00 0.0 l/m2 in 6 Std. -
Fr, 10.07. 8:00 0.0 l/m2 in 12 Std. -
Fr, 10.07. 2:00 0.0 l/m2 in 6 Std. -
Ortszeit Niederschlagsmenge Niederschlagsart
So, 12.07. 1:30 0.0 l/m2 in 1 Std. -
So, 12.07. 1:20 keine Meldung -
So, 12.07. 1:10 keine Meldung -
So, 12.07. 1:00 0.1 l/m2 in 1 Std. -
So, 12.07. 0:50 keine Meldung -
So, 12.07. 0:40 keine Meldung -
So, 12.07. 0:30 0.1 l/m2 in 1 Std. -
So, 12.07. 0:00 0.0 l/m2 in 1 Std. -
Sa, 11.07. 23:30 0.0 l/m2 in 1 Std. -
Sa, 11.07. 23:00 0.0 l/m2 in 1 Std. Regen
Sa, 11.07. 22:30 0.0 l/m2 in 1 Std. -
Ortszeit Stärke Spitze Richtung
km/h Bft. km/h Grad Sektor
Sa, 11.07. 20:00 11 2 40 350° N
Sa, 11.07. 14:00 7 2 14 20° N
Sa, 11.07. 8:00 7 2 19 260° W
Sa, 11.07. 2:00 7 2 29 330° NW
Fr, 10.07. 20:00 11 2 54 320° NW
Fr, 10.07. 14:00 15 3 24 300° NW
Fr, 10.07. 8:00 6 1 9 140° SO
Fr, 10.07. 2:00 4 1 7 80° O
Ortszeit Stärke Spitze Richtung
km/h Bft. km/h Grad Sektor
So, 12.07. 1:30 4 1 7 300° NW
So, 12.07. 1:20 4 1 - 300° NW
So, 12.07. 1:10 4 1 - 310° NW
So, 12.07. 1:00 4 1 7 280° W
So, 12.07. 0:50 4 1 - 280° W
So, 12.07. 0:40 2 1 - 30° NO
So, 12.07. 0:30 2 1 7 200° S
So, 12.07. 0:00 7 2 13 70° O
Sa, 11.07. 23:30 4 1 14 90° O
Sa, 11.07. 23:00 0 0 7 - -
Sa, 11.07. 22:30 6 1 7 290° W
Ortszeit Untergrenze Bedeckung Gattung
total tief tief mittel hoch
Sa, 11.07. 20:00 750 m 8/8 8/8 - - -
Sa, 11.07. 14:00 390 m 8/8 8/8 - - -
Sa, 11.07. 8:00 210 m 8/8 8/8 - - -
Sa, 11.07. 2:00 1500 m 8/8 8/8 - - -
Fr, 10.07. 20:00 750 m 8/8 7/8 - - -
Fr, 10.07. 14:00 9000 m 0/8 0/8 - - -
Fr, 10.07. 8:00 - 0/8 0/8 - - -
Fr, 10.07. 2:00 - 0/8 0/8 - - -
Ortszeit Bedeckungsgrad in Achtel und Wolkenuntergrenze
So, 12.07. 1:30 5(90m) 7(2700m)
So, 12.07. 1:20 5(90m) 7(2700m)
So, 12.07. 1:10 3(90m) 7(2700m)
So, 12.07. 1:00 1(150m) 3(1800m) 7(2700m)
So, 12.07. 0:50 1(150m) 3(1800m) 7(2700m)
So, 12.07. 0:40 1(150m) 3(1800m) 7(2700m)
So, 12.07. 0:30 1(180m) 5(2700m) 7(2700m)
So, 12.07. 0:00 1(360m)
Sa, 11.07. 23:30 1(1290m)
Sa, 11.07. 23:00 1(<30m)
Sa, 11.07. 22:30 keine Wolken
Ortszeit Luftdruck NN (hPa) Tendenz (hPa in 3 Std.)
Sa, 11.07. 20:00 1024 + 1,2
Sa, 11.07. 14:00 1022 + 1,1
Sa, 11.07. 8:00 1019 + 1,4
Sa, 11.07. 2:00 1017 + 0,7
Fr, 10.07. 20:00 1013 + 2,8
Fr, 10.07. 14:00 1009 - 1,0
Fr, 10.07. 8:00 1013 - 0,1
Fr, 10.07. 2:00 1015 - 0,1
Ortszeit Luftdruck NN (hPa) Tendenz (hPa in 3 Std.)
So, 12.07. 1:30 1025 + 0,5
So, 12.07. 1:20 1025 keine Meldung
So, 12.07. 1:10 1025 keine Meldung
So, 12.07. 1:00 1026 + 1,1
So, 12.07. 0:50 1026 keine Meldung
So, 12.07. 0:40 1026 keine Meldung
So, 12.07. 0:30 1026 + 1,3
So, 12.07. 0:00 1026 + 1,4
Sa, 11.07. 23:30 1025 + 1,2
Sa, 11.07. 23:00 1025 + 1,0
Sa, 11.07. 22:30 1025 + 1,4
Ortszeit Schneehöhe (cm)
Sa, 11.07. 20:00 -
Sa, 11.07. 14:00 -
Sa, 11.07. 8:00 -
Sa, 11.07. 2:00 -
Fr, 10.07. 20:00 -
Fr, 10.07. 14:00 -
Fr, 10.07. 8:00 -
Fr, 10.07. 2:00 -
Ortszeit Schneehöhe (cm)
So, 12.07. 1:30 -
So, 12.07. 1:20 -
So, 12.07. 1:10 -
So, 12.07. 1:00 -
So, 12.07. 0:50 -
So, 12.07. 0:40 -
So, 12.07. 0:30 -
So, 12.07. 0:00 -
Sa, 11.07. 23:30 -
Sa, 11.07. 23:00 -
Sa, 11.07. 22:30 -
Link zu dieser Seite / Seite empfehlen

Das Wetter in ...